Tracking 27188 objects as of 1-Apr-2023
HD Live streaming from Space Station
objects crossing your sky now

STARLINK-5420

Track STARLINK-5420 now!
10-day predictions
STARLINK-5420 is classified as:


NORAD ID: 54798
Int'l Code: 2022-175AS
Perigee: 533.9 km
Apogee: 535.8 km
Inclination: 53.2 °
Period: 95.2 minutes
Semi major axis: 6905 km
RCS: Unknown
Launch date: December 17, 2022
Source: United States (US)
Launch site: AIR FORCE EASTERN TEST RANGE (AFETR)
Your satellite tracking list
Your tracking list is empty




NASA's NSSDC Master Catalog

Two Line Element Set (TLE):
1 54798U 22175AS  23091.33334491 -.00941964  00000-0 -57466-1 0  9999
2 54798  53.2156 157.4438 0001361  92.0650 210.8287 15.12776045 16072
Source of the keplerian elements: AFSPC